Location: Noordwijk
(52.2400°N, 4.4500°E)
Time: 22:23:40
(UTC+00:00)

FO-29 - Pass Details

Date: 07 December 2022
Orbit: 799 x 1322 km, 98.5° (Epoch: 01 February)

Event Time Altitude Azimuth Distance (km) Brightness Sun altitude
Rises 16:26:16 0° 161° (SSE) 4,312 13.0 -8.1°
Reaches altitude 10° 16:29:01 10° 161° (SSE) 3,331 12.4 -8.5°
Maximum altitude 16:36:51 89° 71° (ENE) 1,268 10.1 -9.5°
Drops below altitude 10° 16:44:07 10° 345° (NNW) 3,103 12.0 -10.6°
Sets 16:46:36 0° 346° (NNW) 4,003 12.6 -10.9°
